Date String (YYYY-MM-DD hh:mm:ss) UTC,Instrument flags,absolute air pressure of the measurement (hPa),sample flow rate (lpm),inlet stack bypass flow (lpm),air temperature of the measurement (°C),ambient temperature measured by the external sensor (°C),aerosol sample conditioner tube jacket temperature (°C),OPC LED temperature (°C),internal box temperature (°C),relative humidity of the measurement (%),span deviation,mass concentration of particles derived from Lorenz-Mie calculation of OPC scattering (μg/m³),mass concentration of particles derived from Lorenz-Mie calculation of OPC scattering (μg/m³),mass concentration of particles derived from Lorenz-Mie calculation of OPC scattering (μg/m³)
DateTimeUTC,F1_M11,P_M11,Q1_M11,Q2_M11,T1_M11,T2_M11,T3_M11,T4_M11,T5_M11,U1_M11,ZSPAN_M11,X2_M11,X0_M11,X1_M11
2023-07-26 08:00:00,SystemResetWarning,0835.2,5.00,000.00,029.1,027.8,000.0,037.5,030.8,22.5,0000.0,0003.92,0008.74,0003.25
2023-07-26 08:01:00,SystemResetWarning,0834.8,5.00,000.00,029.2,027.9,000.0,037.5,030.9,22.0,0000.0,0003.91,0008.70,0003.22
2023-07-26 08:02:00,SystemResetWarning,0834.6,5.00,000.00,029.2,026.5,000.0,037.4,030.7,22.0,0000.0,0003.92,0008.95,0003.20
2023-07-26 08:03:00,SystemResetWarning,0834.6,5.01,000.00,029.1,025.6,000.0,037.3,030.5,22.4,0000.0,0003.91,0009.44,0003.18
2023-07-26 08:04:00,SystemResetWarning,0834.5,5.01,000.00,029.1,025.7,000.0,037.3,030.4,22.5,0000.0,0003.93,0010.12,0003.16
2023-07-26 08:05:00,SystemResetWarning,0834.5,4.99,000.00,029.0,026.0,000.0,037.4,030.4,21.8,0000.0,0003.91,0009.63,0003.15
2023-07-26 08:06:00,SystemResetWarning,0834.4,5.01,000.00,029.0,026.4,000.0,037.4,030.5,21.6,0000.0,0003.90,0009.18,0003.13
2023-07-26 08:07:00,SystemResetWarning,0834.4,5.01,000.00,029.0,026.8,000.0,037.4,030.6,21.4,0000.0,0003.87,0009.14,0003.10
2023-07-26 08:08:00,SystemResetWarning,0834.4,4.99,000.00,029.0,027.1,000.0,037.5,030.6,21.3,0000.0,0003.86,0009.28,0003.03
2023-07-26 08:09:00,SystemResetWarning,0834.5,4.99,000.00,029.1,027.4,000.0,037.5,030.7,21.4,0000.0,0003.79,0009.22,0002.95
2023-07-26 08:10:00,SystemResetWarning,0834.2,5.01,000.00,029.1,027.6,000.0,037.5,030.8,21.4,0000.0,0003.71,0009.11,0002.83
2023-07-26 08:11:00,SystemResetWarning,0834.2,5.00,000.00,029.1,027.8,000.0,037.5,030.8,21.5,0000.0,0003.62,0008.57,0002.73
2023-07-26 08:12:00,SystemResetWarning,0834.2,5.01,000.00,029.2,028.0,000.0,037.5,030.9,21.7,0000.0,0003.53,0008.38,0002.64
2023-07-26 08:13:00,SystemResetWarning,0834.2,5.01,000.00,029.2,027.8,000.0,037.5,030.9,22.1,0000.0,0003.46,0008.24,0002.55
2023-07-26 08:14:00,SystemResetWarning,0834.1,4.98,000.00,029.2,026.1,000.0,037.4,030.7,22.1,0000.0,0003.44,0007.68,0002.48
2023-07-26 08:15:00,SystemResetWarning,0834.1,5.01,000.00,029.1,024.8,000.0,037.3,030.5,21.5,0000.0,0003.35,0007.02,0002.39
2023-07-26 08:16:00,SystemResetWarning,0834.1,5.02,000.00,029.0,024.8,000.0,037.3,030.3,21.7,0000.0,0003.27,0006.55,0002.30
2023-07-26 08:17:00,SystemResetWarning,0834.1,5.00,000.00,028.9,025.2,000.0,037.3,030.2,21.5,0000.0,0003.21,0006.41,0002.24
2023-07-26 08:18:00,SystemResetWarning,0834.0,5.00,000.00,028.9,025.6,000.0,037.3,030.3,21.9,0000.0,0003.18,0006.33,0002.22
2023-07-26 08:19:00,SystemResetWarning,0834.0,5.00,000.00,028.9,026.1,000.0,037.4,030.3,23.1,0000.0,0003.13,0005.95,0002.21
2023-07-26 08:20:00,SystemResetWarning,0834.1,5.00,000.00,028.9,026.5,000.0,037.4,030.4,21.9,0000.0,0003.12,0006.03,0002.19
2023-07-26 08:21:00,SystemResetWarning,0834.1,5.00,000.00,028.9,026.9,000.0,037.4,030.5,21.4,0000.0,0003.11,0006.08,0002.20
2023-07-26 08:22:00,SystemResetWarning,0834.0,4.99,000.00,029.0,027.2,000.0,037.4,030.6,21.8,0000.0,0003.11,0006.08,0002.20
2023-07-26 08:23:00,SystemResetWarning,0834.1,5.00,000.00,029.0,027.4,000.0,037.4,030.7,22.4,0000.0,0003.12,0006.63,0002.21
2023-07-26 08:24:00,SystemResetWarning,0834.0,5.00,000.00,029.0,027.6,000.0,037.4,030.7,22.5,0000.0,0003.12,0007.25,0002.22
2023-07-26 08:25:00,SystemResetWarning,0834.0,5.00,000.00,029.1,027.8,000.0,037.4,030.8,21.5,0000.0,0003.10,0007.09,0002.21
2023-07-26 08:26:00,SystemResetWarning,0834.0,5.01,000.00,029.1,028.0,000.0,037.5,030.8,21.1,0000.0,0003.09,0006.59,0002.22
2023-07-26 08:27:00,SystemResetWarning,0834.0,4.98,000.00,029.2,028.0,000.0,037.5,030.9,20.9,0000.0,0003.11,0006.47,0002.23
2023-07-26 08:28:00,SystemResetWarning,0833.9,4.99,000.00,029.2,026.8,000.0,037.4,030.8,20.4,0000.0,0003.16,0006.63,0002.26
2023-07-26 08:29:00,SystemResetWarning,0833.9,5.01,000.00,029.1,025.6,000.0,037.3,030.6,20.1,0000.0,0003.17,0006.72,0002.26
2023-07-26 08:30:00,SystemResetWarning,0833.9,5.01,000.00,029.1,025.7,000.0,037.3,030.5,20.9,0000.0,0003.24,0007.28,0002.29
2023-07-26 08:31:00,SystemResetWarning,0833.9,4.99,000.00,029.0,026.0,000.0,037.3,030.4,22.5,0000.0,0003.24,0007.23,0002.30
2023-07-26 08:32:00,SystemResetWarning,0833.9,5.00,000.00,029.0,026.3,000.0,037.4,030.5,22.4,0000.0,0003.25,0007.09,0002.30
2023-07-26 08:33:00,SystemResetWarning,0833.9,5.01,000.00,029.0,026.7,000.0,037.4,030.5,22.0,0000.0,0003.28,0007.14,0002.31
2023-07-26 08:34:00,SystemResetWarning,0834.0,4.99,000.00,029.0,027.0,000.0,037.4,030.6,21.8,0000.0,0003.30,0007.16,0002.31
2023-07-26 08:35:00,SystemResetWarning,0833.9,4.99,000.00,029.1,027.3,000.0,037.4,030.7,21.6,0000.0,0003.34,0006.26,0002.33
2023-07-26 08:36:00,SystemResetWarning,0833.9,4.99,000.00,029.1,027.6,000.0,037.5,030.8,21.5,0000.0,0003.34,0006.38,0002.35
2023-07-26 08:37:00,SystemResetWarning,0833.9,5.01,000.00,029.1,027.8,000.0,037.5,030.8,21.1,0000.0,0003.36,0006.67,0002.38
2023-07-26 08:38:00,SystemResetWarning,0833.9,5.00,000.00,029.2,027.9,000.0,037.5,030.9,20.7,0000.0,0003.37,0006.68,0002.41
2023-07-26 08:39:00,SystemResetWarning,0833.9,5.01,000.00,029.2,027.9,000.0,037.5,030.9,20.6,0000.0,0003.34,0006.56,0002.42
2023-07-26 08:40:00,SystemResetWarning,0833.9,4.99,000.00,029.2,026.4,000.0,037.4,030.7,20.5,0000.0,0003.38,0006.72,0002.42
2023-07-26 08:41:00,SystemResetWarning,0834.0,5.02,000.00,029.1,025.6,000.0,037.3,030.6,21.0,0000.0,0003.42,0006.79,0002.43
2023-07-26 08:42:00,SystemResetWarning,0834.0,5.00,000.00,029.1,025.8,000.0,037.3,030.4,21.0,0000.0,0003.41,0006.63,0002.44
2023-07-26 08:43:00,SystemResetWarning,0834.0,4.99,000.00,029.0,026.1,000.0,037.4,030.4,20.8,0000.0,0003.42,0007.60,0002.45
2023-07-26 08:44:00,SystemResetWarning,0834.1,5.00,000.00,029.0,026.5,000.0,037.4,030.5,20.8,0000.0,0003.43,0007.62,0002.46
2023-07-26 08:45:00,SystemResetWarning,0834.1,5.00,000.00,029.0,026.8,000.0,037.4,030.6,22.6,0000.0,0003.43,0007.60,0002.45
2023-07-26 08:46:00,SystemResetWarning,0834.1,5.01,000.00,029.1,027.1,000.0,037.5,030.7,23.0,0000.0,0003.41,0007.67,0002.42
2023-07-26 08:47:00,SystemResetWarning,0834.1,5.00,000.00,029.1,027.4,000.0,037.5,030.7,23.2,0000.0,0003.41,0007.63,0002.40
2023-07-26 08:48:00,SystemResetWarning,0834.1,5.00,000.00,029.1,027.6,000.0,037.5,030.8,23.3,0000.0,0003.40,0007.49,0002.39
2023-07-26 08:49:00,SystemResetWarning,0834.1,4.99,000.00,029.2,027.8,000.0,037.5,030.9,23.8,0000.0,0003.42,0007.54,0002.38
2023-07-26 08:50:00,SystemResetWarning,0834.1,4.99,000.00,029.2,027.4,000.0,037.5,030.8,23.5,0000.0,0003.44,0007.66,0002.36
2023-07-26 08:51:00,SystemResetWarning,0834.1,5.01,000.00,029.2,025.8,000.0,037.4,030.7,24.6,0000.0,0003.45,0007.74,0002.33
2023-07-26 08:52:00,SystemResetWarning,0834.1,5.02,000.00,029.1,025.5,000.0,037.3,030.5,23.7,0000.0,0003.38,0007.55,0002.30
2023-07-26 08:53:00,SystemResetWarning,0834.1,4.99,000.00,029.0,025.8,000.0,037.3,030.4,22.8,0000.0,0003.35,0007.48,0002.26
2023-07-26 08:54:00,SystemResetWarning,0834.0,5.00,000.00,029.0,026.1,000.0,037.4,030.4,23.3,0000.0,0003.35,0006.74,0002.24
2023-07-26 08:55:00,SystemResetWarning,0834.1,5.00,000.00,029.0,026.5,000.0,037.4,030.5,22.8,0000.0,0003.34,0006.46,0002.20
2023-07-26 08:56:00,SystemResetWarning,0834.1,5.01,000.00,029.0,026.8,000.0,037.4,030.6,22.1,0000.0,0003.30,0006.35,0002.18
2023-07-26 08:57:00,SystemResetWarning,0834.0,5.00,000.00,029.0,027.1,000.0,037.5,030.7,21.7,0000.0,0003.32,0006.20,0002.17
2023-07-26 08:58:00,SystemResetWarning,0834.1,5.00,000.00,029.1,027.4,000.0,037.5,030.7,23.1,0000.0,0003.29,0006.01,0002.15
2023-07-26 08:59:00,SystemResetWarning,0834.1,4.99,000.00,029.1,027.6,000.0,037.5,030.8,23.5,0000.0,0003.29,0006.11,0002.11
